[[{"header":{"parameterUnit":"m.s-1","parameterCategory":1,"la1":30.2991,"la2":30.254,"lo1":-89.0895,"lo2":-89.0444,"dy":0.0017,"dx":0.0017,"nx":28,"ny":28,"refTime":"2025-01-27T03:00:00:Z","depth":0,"parameterNumber":2,"parameterNumberName":"U-component_of_WINDS"},"data":[0,0,0,0,0,0,0,0,0,0,0,0,0,0,0,0,0,0,0,0,0,0,0,0,0,0,0,0,0,0,0,0,0,0,0,0,0,0,0,0,0,0,0,0,0,0,0,0,0,0,0,0,0,0,0,0,0,0,-1.4415,-1.4415,0,-1.441,-1.441,-1.441,-1.4365,-1.4364,-1.4363,-1.4362,-1.4359,-1.436,-1.436,0,0,0,0,0,0,0,0,0,0,0,0,0,-1.4386,-1.4387,-1.4415,-1.4415,-1.4415,-1.441,-1.441,-1.441,-1.4365,-1.4364,-1.4363,-1.4361,-1.4358,-1.4359,-1.4361,0,0,0,0,0,0,0,0,0,0,0,0,0,-1.4392,-1.4387,-1.4415,-1.4392,-1.439,-1.441,-1.441,-1.441,-1.4366,-1.4364,-1.4362,-1.4361,-1.4358,-1.4359,-1.4361,-1.4403,0,0,-1.4365,-1.4366,0,0,0,0,0,0,0,0,-1.4391,-1.4393,-1.4395,-1.4393,-1.4391,-1.4386,-1.4399,-1.4408,-1.4366,-1.4375,-1.4362,-1.436,-1.4369,-1.437,-1.4373,-1.4403,-1.4403,-1.4365,-1.4366,-1.4367,-1.4367,0,0,0,0,0,0,0,-1.4391,-1.4393,-1.4413,-1.4395,-1.4393,-1.4382,-1.4381,-1.44,-1.4382,-1.4374,-1.4371,-1.4371,-1.4368,-1.4371,-1.4372,-1.4403,-1.4365,-1.4367,-1.4367,-1.4368,-1.4469,-1.447,0,0,0,0,0,0,-1.4394,-1.4393,-1.4413,-1.4413,-1.4387,-1.4384,-1.4383,-1.439,-1.4381,-1.4378,-1.4372,-1.4369,-1.437,-1.4371,-1.4372,-1.4422,-1.4367,-1.4368,-1.4369,-1.4467,-1.4469,-1.4471,0,0,0,0,0,0,-1.4393,-1.4396,-1.4413,-1.4402,-1.4403,-1.4386,-1.4394,-1.439,-1.4394,-1.438,-1.4376,-1.4379,-1.4368,-1.437,-1.4396,-1.4421,-1.4369,-1.437,-1.4465,-1.4468,-1.447,-1.4522,0,0,0,0,0,0,-1.4393,-1.4396,-1.4412,-1.4402,-1.4404,-1.4437,-1.4396,-1.4392,-1.4396,-1.4392,-1.4385,-1.4383,-1.4367,-1.4394,-1.4397,-1.4422,-1.4371,-1.4462,-1.4466,-1.4469,-1.4518,-1.4526,-1.4533,0,0,0,0,0,-1.4392,-1.4427,-1.4413,-1.4416,-1.4423,-1.4439,-1.4439,-1.442,-1.4398,-1.4414,-1.4405,-1.4383,-1.4417,-1.4397,-1.44,-1.4426,-1.4461,-1.4465,-1.4469,-1.4514,-1.4524,-1.4533,0,0,0,0,0,0,-1.444,-1.4425,-1.441,-1.4442,-1.4442,-1.4431,-1.4451,-1.4432,-1.4438,-1.4433,-1.441,-1.4409,-1.4438,-1.4434,-1.4412,-1.4467,-1.4435,-1.444,-1.4469,-1.4478,-1.4485,-1.4486,-1.4372,0,0,0,0,0,-1.4454,-1.4468,-1.4454,-1.4484,-1.4485,-1.4468,-1.4474,-1.4459,-1.4458,-1.4458,-1.4451,-1.4451,-1.4462,-1.4469,-1.4478,-1.4516,-1.4515,-1.4536,-1.4543,-1.4549,-1.4554,-1.4575,-1.4584,-1.4484,-1.4484,-1.4484,0,0,-1.4484,-1.4478,-1.4488,-1.4494,-1.4492,-1.4507,-1.4468,-1.4485,-1.4496,-1.446,-1.4485,-1.4479,-1.4478,-1.451,-1.4524,-1.4508,-1.4581,-1.4555,-1.456,-1.4561,-1.458,-1.4589,-1.4598,-1.4487,-1.4487,-1.4486,0,0,-1.4547,-1.4543,-1.4568,-1.4567,-1.4564,-1.4552,-1.4559,-1.455,-1.4545,-1.4569,-1.4543,-1.4555,-1.4574,-1.4574,-1.4577,-1.4639,-1.4619,-1.4643,-1.4683,-1.4703,-1.4711,-1.4718,-1.4741,-1.4749,-1.4648,-1.4648,-1.4648,0,-1.4585,-1.4606,-1.4584,-1.4603,-1.4607,-1.4574,-1.46,-1.4599,-1.46,-1.4604,-1.4585,-1.4609,-1.4605,-1.4638,-1.4653,-1.4656,-1.4662,-1.4644,-1.4712,-1.4718,-1.4724,-1.4746,-1.4755,-1.4651,-1.465,-1.465,-1.465,0,-1.4653,-1.4668,-1.4689,-1.469,-1.4696,-1.4718,-1.47,-1.4708,-1.4693,-1.4683,-1.4708,-1.4703,-1.4711,-1.4717,-1.4702,-1.4747,-1.4737,-1.4716,-1.4684,-1.4737,-1.4757,-1.4765,-1.4655,-1.4654,-1.4653,-1.4652,0,0,-1.4747,-1.4735,-1.4743,-1.4743,-1.4738,-1.4749,-1.477,-1.4777,-1.4785,-1.4786,-1.4804,-1.4821,-1.48,-1.4803,-1.4788,-1.4806,-1.4857,-1.4782,-1.4782,-1.4797,-1.4907,-1.4924,-1.4934,-1.4843,-1.4844,-1.4845,-1.4907,0,-1.4808,-1.4843,-1.4823,-1.4861,-1.4875,-1.4844,-1.4862,-1.4861,-1.4852,-1.4863,-1.4854,-1.4866,-1.4838,-1.484,-1.4856,-1.4847,-1.4879,-1.4842,-1.486,-1.486,-1.4862,-1.4944,-1.4962,-1.5021,-1.4915,-1.4916,-1.4917,0,-1.4884,-1.4888,-1.4928,-1.4919,-1.4924,-1.4941,-1.4946,-1.4956,-1.4955,-1.4947,-1.495,-1.4931,-1.4951,-1.4919,-1.4947,-1.4922,-1.4928,-1.4925,-1.4927,-1.4929,-1.4893,-1.4949,-1.5039,-1.5049,-1.4929,-1.4928,-1.4927,0,-1.495,-1.4965,-1.4991,-1.4992,-1.4983,-1.4995,-1.4992,-1.4988,-1.4994,-1.4998,-1.5002,-1.5009,-1.5013,-1.5019,-1.5002,-1.4979,-1.5032,-1.4998,-1.5028,-1.5028,-1.5041,-1.5041,-1.5134,-1.5043,-1.5043,-1.5043,-1.5043,0,-1.5021,-1.5046,-1.502,-1.5036,-1.5064,-1.5041,-1.5069,-1.5063,-1.5059,-1.5074,-1.5047,-1.5061,-1.5038,-1.505,-1.5036,-1.5062,-1.5064,-1.5059,-1.5055,-1.5062,-1.5063,-1.5066,-1.5062,-1.5045,-1.5045,-1.5044,-1.5044,0,-1.51,-1.5083,-1.5109,-1.5098,-1.5096,-1.5117,-1.5107,-1.5122,-1.5111,-1.513,-1.5133,-1.5116,-1.5129,-1.5112,-1.5123,-1.5114,-1.515,-1.5139,-1.5151,-1.5148,-1.5179,-1.5176,-1.5279,-1.5291,-1.5191,-1.5192,-1.5193,0,-1.5147,-1.5165,-1.5156,-1.5164,-1.5162,-1.5174,-1.518,-1.5158,-1.5165,-1.5164,-1.5179,-1.5189,-1.5196,-1.5217,-1.5207,-1.5215,-1.5205,-1.5241,-1.5207,-1.5213,-1.5207,-1.5207,-1.5209,-1.5248,-1.5249,-1.525,-1.5251,0,-1.5232,-1.5223,-1.5231,-1.5237,-1.5244,-1.5248,-1.525,-1.5257,-1.5235,-1.5244,-1.5256,-1.5261,-1.5272,-1.5283,-1.5289,-1.5286,-1.5265,-1.5262,-1.5269,-1.5277,-1.5283,-1.5281,-1.5171,-1.526,-1.5259,-1.5258,-1.5258,-1.5257,-1.5297,-1.5312,-1.5308,-1.5319,-1.5318,-1.532,-1.5333,-1.5324,-1.5333,-1.534,-1.5327,-1.5343,-1.534,-1.5345,-1.5345,-1.5357,-1.5342,-1.5352,-1.5355,-1.5358,-1.5364,-1.528,-1.5358,-1.5357,-1.5357,-1.5357,-1.5357,0,-1.5382,-1.5378,-1.5387,-1.539,-1.5399,-1.5378,-1.5378,-1.5387,-1.5401,-1.54,-1.5407,-1.5422,-1.5432,-1.5422,-1.543,-1.5442,-1.5433,-1.5445,-1.5445,-1.5445,-1.5376,-1.5369,-1.5453,-1.5453,-1.5453,-1.5452,-1.5452,-1.5452,-1.5427,-1.5452,-1.5443,-1.5467,-1.5462,-1.5477,-1.548,-1.5482,-1.5481,-1.5498,-1.5506,-1.5499,-1.5495,-1.5502,-1.5511,-1.5508,-1.5512,-1.5528,-1.5522,-1.5459,-1.5449,-1.544,-1.5434,-1.5529,-1.5529,-1.5589,-1.559,-1.559]},{"header":{"parameterUnit":"m.s-1","parameterCategory":1,"la1":30.2991,"la2":30.254,"lo1":-89.0895,"lo2":-89.0444,"dy":0.0017,"dx":0.0017,"nx":28,"ny":28,"refTime":"2025-01-27T03:00:00:Z","depth":0,"parameterNumber":3,"parameterNumberName":"V-component_of_WINDS"},"data":[0,0,0,0,0,0,0,0,0,0,0,0,0,0,0,0,0,0,0,0,0,0,0,0,0,0,0,0,0,0,0,0,0,0,0,0,0,0,0,0,0,0,0,0,0,0,0,0,0,0,0,0,0,0,0,0,0,0,-2.8059,-2.8059,0,-2.8142,-2.8143,-2.8144,-2.8143,-2.8142,-2.8141,-2.814,-2.8224,-2.8227,-2.823,0,0,0,0,0,0,0,0,0,0,0,0,0,-2.7898,-2.7901,-2.8058,-2.806,-2.8061,-2.8142,-2.8143,-2.8144,-2.8143,-2.8142,-2.8141,-2.8139,-2.8223,-2.8227,-2.8231,0,0,0,0,0,0,0,0,0,0,0,0,0,-2.7973,-2.7902,-2.8058,-2.807,-2.8072,-2.8141,-2.8143,-2.8144,-2.8143,-2.8142,-2.814,-2.8139,-2.8222,-2.8226,-2.8231,-2.8294,0,0,-2.8246,-2.8248,0,0,0,0,0,0,0,0,-2.7969,-2.7979,-2.8067,-2.8069,-2.8072,-2.813,-2.8117,-2.8195,-2.8144,-2.8116,-2.814,-2.8138,-2.8194,-2.8201,-2.822,-2.8298,-2.8302,-2.8247,-2.825,-2.8252,-2.8253,0,0,0,0,0,0,0,-2.7964,-2.7975,-2.8091,-2.8069,-2.8071,-2.8071,-2.808,-2.8132,-2.8163,-2.8119,-2.8119,-2.8129,-2.8195,-2.8216,-2.8222,-2.8303,-2.8247,-2.8251,-2.8254,-2.8256,-2.8438,-2.844,0,0,0,0,0,0,-2.7956,-2.7971,-2.8089,-2.8094,-2.8015,-2.8075,-2.8085,-2.8113,-2.8163,-2.8169,-2.813,-2.8128,-2.8208,-2.8217,-2.8225,-2.8303,-2.8252,-2.8256,-2.8259,-2.8436,-2.8438,-2.844,0,0,0,0,0,0,-2.7953,-2.7967,-2.8085,-2.8033,-2.8048,-2.808,-2.8111,-2.8116,-2.8136,-2.8171,-2.8177,-2.8145,-2.8207,-2.8218,-2.8277,-2.8306,-2.8259,-2.8263,-2.8434,-2.8437,-2.8439,-2.8459,0,0,0,0,0,0,-2.7948,-2.7965,-2.799,-2.8033,-2.8051,-2.8136,-2.8113,-2.8118,-2.8145,-2.8144,-2.8187,-2.8193,-2.8207,-2.827,-2.8282,-2.8312,-2.8267,-2.8431,-2.8435,-2.8438,-2.8456,-2.8462,-2.8467,0,0,0,0,0,-2.7942,-2.7992,-2.7991,-2.8005,-2.8082,-2.8138,-2.8148,-2.8163,-2.8147,-2.8172,-2.8195,-2.8192,-2.8301,-2.8276,-2.829,-2.8321,-2.843,-2.8434,-2.8438,-2.8453,-2.8461,-2.8467,0,0,0,0,0,0,-2.795,-2.7998,-2.7997,-2.8062,-2.8096,-2.8138,-2.817,-2.817,-2.8209,-2.8206,-2.8223,-2.8233,-2.8292,-2.8312,-2.8284,-2.8385,-2.8363,-2.837,-2.837,-2.8377,-2.8383,-2.8377,-2.8271,0,0,0,0,0,-2.796,-2.8002,-2.8041,-2.8094,-2.8111,-2.8137,-2.8162,-2.8171,-2.8207,-2.8221,-2.8248,-2.8283,-2.8325,-2.8352,-2.8393,-2.8458,-2.8468,-2.8487,-2.8493,-2.8497,-2.8503,-2.854,-2.8549,-2.8454,-2.8454,-2.8454,0,0,-2.7979,-2.801,-2.8036,-2.8096,-2.8124,-2.8167,-2.815,-2.8196,-2.8228,-2.8228,-2.8286,-2.8307,-2.8346,-2.8409,-2.8438,-2.8428,-2.8532,-2.8503,-2.8506,-2.851,-2.8546,-2.8554,-2.8562,-2.8457,-2.8457,-2.8456,0,0,-2.8038,-2.8065,-2.8113,-2.8141,-2.8183,-2.82,-2.8211,-2.8253,-2.8267,-2.8325,-2.8327,-2.8365,-2.8437,-2.8465,-2.8489,-2.8559,-2.8558,-2.8571,-2.8602,-2.8637,-2.8645,-2.8652,-2.8677,-2.8686,-2.8577,-2.8577,-2.8577,0,-2.8057,-2.8122,-2.8137,-2.8184,-2.8211,-2.8213,-2.8262,-2.8288,-2.8341,-2.8359,-2.8347,-2.8438,-2.8465,-2.8535,-2.8552,-2.8571,-2.8585,-2.8567,-2.8642,-2.8649,-2.8656,-2.868,-2.869,-2.8579,-2.8579,-2.8578,-2.8578,0,-2.8144,-2.8189,-2.8223,-2.8274,-2.8305,-2.8352,-2.8374,-2.8403,-2.8409,-2.8428,-2.8487,-2.852,-2.8567,-2.8584,-2.859,-2.8655,-2.8648,-2.8639,-2.8617,-2.8666,-2.8689,-2.8699,-2.8581,-2.858,-2.858,-2.8579,0,0,-2.8209,-2.8269,-2.8281,-2.8305,-2.8352,-2.8387,-2.8434,-2.8481,-2.8506,-2.8542,-2.8583,-2.8644,-2.8636,-2.8663,-2.8672,-2.8704,-2.8758,-2.8691,-2.8692,-2.8703,-2.8832,-2.8839,-2.8849,-2.8757,-2.8759,-2.876,-2.8829,0,-2.8273,-2.8358,-2.8373,-2.8447,-2.849,-2.8493,-2.8534,-2.8567,-2.8586,-2.8624,-2.8644,-2.8688,-2.8674,-2.8691,-2.8722,-2.8744,-2.8784,-2.874,-2.8795,-2.8797,-2.8786,-2.8861,-2.8868,-2.8931,-2.8838,-2.8839,-2.884,0,-2.8358,-2.8397,-2.8476,-2.8518,-2.8536,-2.8573,-2.8617,-2.8654,-2.8691,-2.8703,-2.8733,-2.8739,-2.8789,-2.8764,-2.8833,-2.8803,-2.8826,-2.8841,-2.8843,-2.885,-2.8822,-2.887,-2.8952,-2.8962,-2.8855,-2.8853,-2.8852,0,-2.8399,-2.8471,-2.8528,-2.8548,-2.8598,-2.8624,-2.8645,-2.8681,-2.8709,-2.8747,-2.8766,-2.8809,-2.8833,-2.8867,-2.8885,-2.8865,-2.8952,-2.8929,-2.8963,-2.8963,-2.8982,-2.8981,-2.907,-2.8996,-2.8996,-2.8996,-2.8996,0,-2.8468,-2.8517,-2.8547,-2.8582,-2.8636,-2.8653,-2.8706,-2.8727,-2.8759,-2.8798,-2.8803,-2.8839,-2.886,-2.89,-2.8914,-2.8969,-2.8979,-2.899,-2.8993,-2.899,-2.8989,-2.9006,-2.9002,-2.8998,-2.8998,-2.8997,-2.8997,0,-2.8523,-2.8545,-2.8608,-2.865,-2.8661,-2.8699,-2.8735,-2.8769,-2.8788,-2.8837,-2.885,-2.8879,-2.8925,-2.8946,-2.9004,-2.9013,-2.9076,-2.9076,-2.9064,-2.9065,-2.9098,-2.9095,-2.9202,-2.9217,-2.9133,-2.9134,-2.9134,0,-2.8567,-2.8604,-2.865,-2.8677,-2.87,-2.8742,-2.8771,-2.8789,-2.8818,-2.8864,-2.8892,-2.8939,-2.8978,-2.9053,-2.9079,-2.9123,-2.9124,-2.9158,-2.9131,-2.9127,-2.9126,-2.9123,-2.9127,-2.9164,-2.9164,-2.9165,-2.9166,0,-2.8641,-2.8651,-2.8691,-2.8736,-2.877,-2.8806,-2.8841,-2.8863,-2.8887,-2.8919,-2.8967,-2.8997,-2.9056,-2.9103,-2.9149,-2.9171,-2.9173,-2.9174,-2.9185,-2.9182,-2.9174,-2.9179,-2.9078,-2.9172,-2.9171,-2.9171,-2.917,-2.917,-2.8692,-2.8726,-2.8764,-2.8809,-2.8838,-2.8871,-2.8905,-2.8928,-2.8969,-2.9019,-2.9027,-2.9078,-2.9115,-2.9177,-2.9201,-2.9241,-2.9233,-2.9248,-2.9252,-2.9255,-2.9258,-2.9167,-2.925,-2.925,-2.9249,-2.9249,-2.9249,0,-2.8768,-2.8792,-2.8834,-2.8884,-2.892,-2.8918,-2.8957,-2.8987,-2.9033,-2.9067,-2.9105,-2.9161,-2.9206,-2.9236,-2.9282,-2.9309,-2.9311,-2.932,-2.9319,-2.9324,-2.9262,-2.9249,-2.9318,-2.9318,-2.9318,-2.9318,-2.9318,-2.9318,-2.8811,-2.8868,-2.8882,-2.8953,-2.8978,-2.9029,-2.9051,-2.9082,-2.9109,-2.9171,-2.921,-2.9229,-2.9262,-2.931,-2.9352,-2.9359,-2.9376,-2.9387,-2.9394,-2.9336,-2.9328,-2.9322,-2.9309,-2.939,-2.939,-2.9453,-2.9453,-2.9454]}]]